This is the latest recevied weather packets stored in our database for station/object KD5BIG-13. If no packets are shown the sender has not sent any weather packets the latest 10 day(s).
| Time | Temp. | Humidity | Pressure | Rain* | Wind** | Luminosity | Snow |
|---|---|---|---|---|---|---|---|
| 1777822617 | 22.22° C | 51% | 1027 hPa | 0 mm | - | 825 W/m² | - |
| 1777822315 | 22.22° C | 51% | 1026.9 hPa | 0 mm | - | 809 W/m² | - |
| 1777822012 | 21.67° C | 51% | 1026.9 hPa | 0 mm | - | 794 W/m² | - |
| 1777821710 | 21.67° C | 55% | 1027.1 hPa | 0 mm | - | 779 W/m² | - |
| 1777821407 | 21.67° C | 52% | 1027 hPa | 0 mm | - | 761 W/m² | - |
| 1777821104 | 21.11° C | 56% | 1027 hPa | 0 mm | - | 742 W/m² | - |
| 1777820801 | 21.11° C | 50% | 1026.9 hPa | 0 mm | - | 721 W/m² | - |
| 1777820497 | 20.56° C | 60% | 1027.1 hPa | 0 mm | - | 697 W/m² | - |
| 1777820194 | 20° C | 54% | 1027 hPa | 0 mm | - | 679 W/m² | - |
| 1777819891 | 20° C | 63% | 1026.9 hPa | 0 mm | - | 659 W/m² | - |
| 1777819589 | 20° C | 57% | 1027 hPa | 0 mm | - | 650 W/m² | - |
| 1777819286 | 20° C | 66% | 1027 hPa | 0 mm | - | 608 W/m² | - |
| 1777818983 | 19.44° C | 74% | 1027 hPa | 0 mm | - | 624 W/m² | - |
| 1777818680 | 18.89° C | 72% | 1026.8 hPa | 0 mm | - | 494 W/m² | - |
| 1777818376 | 18.33° C | 74% | 1026.9 hPa | 0 mm | - | 412 W/m² | - |
| 1777818073 | 17.22° C | 78% | 1026.9 hPa | 0 mm | - | 393 W/m² | - |
| 1777817770 | 16.67° C | 81% | 1026.8 hPa | 0 mm | - | 393 W/m² | - |
| 1777817468 | 16.67° C | 85% | 1026.7 hPa | 0 mm | - | 369 W/m² | - |
| 1777817163 | 15° C | 91% | 1026.8 hPa | 0 mm | - | 341 W/m² | - |
| 1777816861 | 15° C | 99% | 1026.5 hPa | 0 mm | - | 301 W/m² | - |
| 1777816558 | 13.89° C | 99% | 1026.5 hPa | 0 mm | - | 252 W/m² | - |
| 1777816255 | 13.33° C | 99% | 1026.6 hPa | 0 mm | - | 222 W/m² | - |
| 1777815952 | 12.78° C | 99% | 1026.5 hPa | 0 mm | - | 205 W/m² | - |
| 1777815650 | 12.22° C | 99% | 1026.7 hPa | 0 mm | - | 187 W/m² | - |
| 1777815347 | 11.67° C | 99% | 1026.7 hPa | 0 mm | - | 164 W/m² | - |
* Rain latest hour (hover to see other rain measurements)
** Current wind speed in m/s (hover to see current wind gust speed)